Flag for Switzerland Weather past 2 weeks in Grenchen, Solothurn, Switzerland

Now
71 °F

Mild.


Feels Like: 75 °F
Forecast: 58 / 75 °F
Wind: 5 mph from Southwest

Location: Grenchen

Current Time: Jul 8, 2015 at 9:06:55 AM

Latest Report: Jul 8, 2015 at 8:00 AM


Visibility: N/A

Pressure: 29.91 "Hg

Humidity: 64%

Dew point: 58 °F

Location of GrenchenLocation

Historic Weather in Grenchen — Graph

°F

Grenchen temperature yesterday

Maximum temperature yesterday: 99 °F (at 4:00 PM)
Minimum temperature yesterday: 67 °F (at 5:00 AM)
Average temperature yesterday: 81 °F

Past Weeks' High & Low Weather Summary

 TemperatureHumidityPressure
High99 °F (Jul 7, 4:00 PM)97% (Jun 25, 6:00 AM)30.26 "Hg (Jun 25, 6:00 AM)
Low44 °F (Jun 24, 5:00 AM)21% (Jul 7, 4:00 PM)29.71 "Hg (Jul 7, 7:00 PM)
Average73 °F60%30.09 "Hg
* Reported Jun 23 7:00 AM — Jul 8 7:00 AM, Grenchen, Weather by CustomWeather, © 2015

Note: Actual official high and low records may vary slightly from our data, if they occured in-between our weather recording intervals... More about our weather records

Advertising

Grenchen weather history for previous 24 hours

 ConditionsComfort  
Time TempWeatherWind HumidityBarometerVisibility
7:00 AM
Wed, Jul 8
70 °FMild.15 mph63%29.91 "HgN/A
6:00 AM73 °FMild.14 mph54%29.90 "HgN/A
5:00 AM72 °FMild.9 mph54%29.91 "HgN/A
4:00 AM73 °FMild.9 mph50%29.92 "HgN/A
3:00 AM74 °FMild.12 mph49%29.91 "HgN/A
2:00 AM75 °FMild.14 mph48%29.88 "HgN/A
1:00 AM78 °FWarm.9 mph53%29.87 "HgN/A
12:00 AM79 °FWarm.16 mph51%29.84 "HgN/A
11:00 PM
Tue, Jul 7
81 °FWarm.10 mph48%29.84 "HgN/A
10:00 PM85 °FWarm.16 mph44%29.78 "HgN/A
9:00 PM87 °FPleasantly warm.10 mph37%29.74 "HgN/A
8:00 PM90 °FHot.8 mph30%29.74 "HgN/A
7:00 PM95 °FExtremely hot.13 mph23%29.71 "HgN/A
6:00 PM89 °FHot.8 mph38%29.74 "HgN/A
5:00 PM95 °FExtremely hot.17 mph27%29.74 "HgN/A
4:00 PM99 °FExtremely hot.12 mph21%29.74 "HgN/A
3:00 PM97 °FExtremely hot.12 mph26%29.78 "HgN/A
2:00 PM94 °FExtremely hot.10 mph32%29.82 "HgN/A
1:00 PM91 °FHot.13 mph40%29.86 "HgN/A
12:00 PM87 °FWarm.13 mph49%29.89 "HgN/A
11:00 AM82 °FWarm.6 mph59%29.92 "HgN/A
10:00 AM80 °FWarm.6 mph62%29.94 "HgN/A
9:00 AM76 °FMild.5 mph73%29.97 "HgN/A
Weather by CustomWeather, © 2015

See weather overviewHow to use our weather pages